TimeEST,TemperatureF,Dew PointF,Humidity,Sea Level PressureIn,VisibilityMPH,Wind Direction,Wind SpeedMPH,Gust SpeedMPH,PrecipitationIn,Events,Conditions,WindDirDegrees,DateUTC
12:53 AM,27.0,25.0,92,30.49,10.0,Calm,Calm,-,N/A,,Clear,0,2011-11-06 04:53:00
1:53 AM,27.0,24.1,89,30.49,10.0,Calm,Calm,-,N/A,,Clear,0,2011-11-06 05:53:00
1:53 AM,27.0,24.1,89,30.49,10.0,Calm,Calm,-,N/A,,Clear,0,2011-11-06 06:53:00
2:53 AM,25.0,21.9,88,30.48,8.0,Calm,Calm,-,N/A,,Clear,0,2011-11-06 07:53:00
3:53 AM,25.0,23.0,92,30.49,10.0,Calm,Calm,-,N/A,,Clear,0,2011-11-06 08:53:00
4:53 AM,24.1,21.0,88,30.49,10.0,Calm,Calm,-,N/A,,Clear,0,2011-11-06 09:53:00
5:53 AM,25.0,21.9,88,30.49,9.0,Calm,Calm,-,N/A,,Clear,0,2011-11-06 10:53:00
6:53 AM,26.1,24.1,92,30.51,10.0,Calm,Calm,-,N/A,,Clear,0,2011-11-06 11:53:00
7:53 AM,33.1,30.0,89,30.53,10.0,Calm,Calm,-,N/A,,Clear,0,2011-11-06 12:53:00
8:53 AM,44.1,37.9,79,30.52,10.0,Calm,Calm,-,N/A,,Clear,0,2011-11-06 13:53:00
9:53 AM,50.0,33.1,52,30.52,10.0,Variable,4.6,-,N/A,,Clear,0,2011-11-06 14:53:00
10:53 AM,53.1,33.1,47,30.50,10.0,WSW,10.4,-,N/A,,Clear,240,2011-11-06 15:53:00
11:53 AM,54.0,32.0,43,30.46,10.0,WSW,11.5,18.4,N/A,,Clear,240,2011-11-06 16:53:00
12:53 PM,54.0,34.0,47,30.44,10.0,SW,9.2,-,N/A,,Clear,230,2011-11-06 17:53:00
1:53 PM,54.0,36.0,51,30.41,10.0,SSW,13.8,20.7,N/A,,Clear,210,2011-11-06 18:53:00
2:53 PM,53.1,36.0,52,30.40,10.0,SSW,12.7,20.7,N/A,,Clear,210,2011-11-06 19:53:00
3:53 PM,50.0,36.0,59,30.40,10.0,SSW,13.8,-,N/A,,Clear,210,2011-11-06 20:53:00
4:53 PM,48.0,37.9,68,30.40,10.0,SW,10.4,-,N/A,,Clear,230,2011-11-06 21:53:00
5:53 PM,45.0,37.9,76,30.40,10.0,SW,4.6,-,N/A,,Clear,220,2011-11-06 22:53:00
6:53 PM,43.0,37.9,82,30.40,10.0,SSW,5.8,-,N/A,,Clear,210,2011-11-06 23:53:00
7:53 PM,41.0,37.0,86,30.40,10.0,SW,3.5,-,N/A,,Clear,230,2011-11-07 00:53:00
8:53 PM,35.1,34.0,96,30.40,10.0,SSW,4.6,-,N/A,,Clear,210,2011-11-07 01:53:00
9:53 PM,34.0,32.0,92,30.38,9.0,South,3.5,-,N/A,,Clear,180,2011-11-07 02:53:00
10:53 PM,39.0,37.0,93,30.36,10.0,SW,3.5,-,N/A,,Clear,230,2011-11-07 03:53:00